TimeEDT,TemperatureF,Dew PointF,Humidity,Sea Level PressureIn,VisibilityMPH,Wind Direction,Wind SpeedMPH,Gust SpeedMPH,PrecipitationIn,Events,Conditions,WindDirDegrees,DateUTC
12:53 AM,55.0,50.0,83,30.17,10.0,Calm,Calm,-,N/A,,Clear,0,2012-10-24 04:53:00
2:53 AM,54.0,51.1,90,30.16,10.0,Calm,Calm,-,N/A,,Clear,0,2012-10-24 06:53:00
3:53 AM,53.1,51.1,93,30.15,10.0,Calm,Calm,-,N/A,,Clear,0,2012-10-24 07:53:00
4:53 AM,53.1,51.1,93,30.16,10.0,Calm,Calm,-,N/A,,Clear,0,2012-10-24 08:53:00
5:53 AM,53.1,51.1,93,30.17,9.0,Calm,Calm,-,N/A,,Clear,0,2012-10-24 09:53:00
6:53 AM,52.0,50.0,93,30.19,9.0,Calm,Calm,-,N/A,,Clear,0,2012-10-24 10:53:00
7:53 AM,52.0,50.0,93,30.20,7.0,Calm,Calm,-,N/A,,Clear,0,2012-10-24 11:53:00
8:32 AM,53.6,51.8,94,30.21,9.0,Calm,Calm,-,N/A,,Scattered Clouds,0,2012-10-24 12:32:00
8:41 AM,55.4,51.8,88,30.22,10.0,Calm,Calm,-,N/A,,Mostly Cloudy,0,2012-10-24 12:41:00
8:53 AM,55.9,53.1,90,30.22,10.0,Calm,Calm,-,N/A,,Overcast,0,2012-10-24 12:53:00
9:31 AM,60.8,55.4,82,30.22,8.0,Calm,Calm,-,N/A,,Scattered Clouds,0,2012-10-24 13:31:00
9:53 AM,64.9,59.0,81,30.22,9.0,Calm,Calm,-,N/A,,Clear,0,2012-10-24 13:53:00
10:53 AM,70.0,59.0,68,30.21,10.0,Calm,Calm,-,N/A,,Clear,0,2012-10-24 14:53:00
11:53 AM,73.9,59.0,59,30.20,10.0,Calm,Calm,-,N/A,,Clear,0,2012-10-24 15:53:00
12:53 PM,77.0,55.9,48,30.17,10.0,Calm,Calm,-,N/A,,Clear,0,2012-10-24 16:53:00
1:53 PM,79.0,53.1,40,30.14,10.0,Calm,Calm,-,N/A,,Clear,0,2012-10-24 17:53:00
2:53 PM,81.0,51.1,35,30.11,10.0,South,5.8,-,N/A,,Clear,170,2012-10-24 18:53:00
3:53 PM,80.1,51.1,36,30.10,10.0,SSW,4.6,-,N/A,,Clear,210,2012-10-24 19:53:00
5:53 PM,80.1,55.0,42,30.09,9.0,Calm,Calm,-,N/A,,Clear,0,2012-10-24 21:53:00
6:53 PM,72.0,59.0,64,30.10,10.0,Calm,Calm,-,N/A,,Clear,0,2012-10-24 22:53:00
7:53 PM,68.0,59.0,73,30.11,10.0,Calm,Calm,-,N/A,,Clear,0,2012-10-24 23:53:00
8:53 PM,64.9,59.0,81,30.12,10.0,Calm,Calm,-,N/A,,Clear,0,2012-10-25 00:53:00
9:53 PM,63.0,57.9,84,30.14,10.0,Calm,Calm,-,N/A,,Clear,0,2012-10-25 01:53:00
10:53 PM,61.0,57.9,90,30.13,10.0,Calm,Calm,-,N/A,,Clear,0,2012-10-25 02:53:00